Location: Fredericksburg
(30.2750°N, 98.8720°W)
Time: 09:41:17
(UTC-05:00)

Amateur Radio Satellites - All Passes

Search period start: 21 April 2015 09:11
Search period end: 22 April 2015 09:11
Location: Fredericksburg, 30.2750°N, 98.8720°W

Satellite Date Start Highest point End Downlink Frequencies (MHz)
Time Altitude Azimuth
CUTE 1.7 + AOD 2 21 Apr 09:18:24 09:20:28 14° 92° (E) 09:22:47 437.475
O/OREOS (USA 219) 21 Apr 09:18:26 09:20:17 13° 59° (ENE) 09:22:21 437.305
CINEMA 3 21 Apr 09:36:47 09:38:13 11° 90° (E) 09:40:01 145.822/145.860
AAUSAT CUBESAT 2 21 Apr 09:38:14 09:40:00 13° 92° (E) 09:42:00 437.432
Cosmos 2491 21 Apr 09:46:49 09:49:50 13° 65° (ENE) 09:53:41 435.465 / 435.565
DOVE 4 21 Apr 09:49:51 09:54:31 36° 97° (E) 09:59:22 437.250
Oscar 11 21 Apr 10:07:17 10:09:09 13° 92° (E) 10:11:17 145.826/435.025
CUBEBUG 2 21 Apr 10:09:08 10:11:10 13° 91° (E) 10:13:29 437.445
BRITE-PL 21 Apr 10:13:32 10:18:27 53° 284° (WNW) 10:23:41 437.365/2234.400
COMPASS 1 21 Apr 10:24:51 10:29:02 64° 100° (E) 10:33:10 437.405
SRMSAT 21 Apr 10:25:50 10:29:50 19° 194° (SSW) 10:33:48 437.500
GOMX 1 21 Apr 10:26:36 10:31:37 60° 284° (WNW) 10:36:54 467.674
HO-68 21 Apr 10:29:32 10:36:46 89° 286° (WNW) 10:43:56 435.675
ANTELSAT 21 Apr 10:37:31 10:40:29 18° 71° (ENE) 10:43:39 437.575/2403.000
SEEDS 21 Apr 10:42:31 10:46:41 58° 284° (WNW) 10:50:49 437.485
CANX-2 21 Apr 10:42:37 10:46:40 41° 285° (WNW) 10:50:39 2200.000
PCSat 21 Apr 10:43:28 10:48:27 36° 300° (WNW) 10:53:25 145.827
UWE-3 21 Apr 10:44:16 10:48:12 27° 96° (E) 10:52:12 435.000/436.395/437.385
YUBILEINY 21 Apr 10:46:43 10:51:47 18° 84° (E) 10:57:26 435.215
CUTE 1.7 + AOD 2 21 Apr 10:52:39 10:56:34 35° 286° (WNW) 11:00:24 437.475
O/OREOS (USA 219) 21 Apr 10:55:44 11:00:01 45° 255° (WSW) 11:04:15 437.305
NANOSAT C BR1 21 Apr 10:56:44 10:58:23 12° 70° (ENE) 11:00:16 145.865
POPSAT HIP 1 21 Apr 10:57:29 10:59:15 13° 70° (ENE) 11:01:15 437.405
FUNcube-1 21 Apr 11:06:57 11:11:12 38° 97° (E) 11:15:28 145.935
CINEMA 3 21 Apr 11:10:53 11:15:47 59° 284° (WNW) 11:20:43 145.822/145.860
AAUSAT CUBESAT 2 21 Apr 11:11:58 11:15:49 35° 285° (WNW) 11:19:36 437.432
DELFI C3 21 Apr 11:19:09 11:23:13 83° 101° (E) 11:27:13 145.870
VELOX 1 21 Apr 11:19:59 11:21:39 12° 92° (E) 11:23:36 145.980
UKube-1 21 Apr 11:20:53 11:24:39 29° 98° (E) 11:28:27 .
POLYITAN 1 21 Apr 11:23:00 11:26:33 28° 73° (ENE) 11:30:11 437.675
DOVE 4 21 Apr 11:28:15 11:32:04 21° 288° (WNW) 11:35:49 437.250
TIGRISAT 21 Apr 11:28:41 11:33:04 74° 78° (ENE) 11:37:36 435.000
ZACube-1 21 Apr 11:30:00 11:34:37 76° 102° (ESE) 11:39:11 437.345
DUCHIFAT 1 21 Apr 11:30:03 11:33:45 32° 74° (ENE) 11:37:31 145.980
UNISAT 6 21 Apr 11:30:41 11:35:05 81° 77° (ENE) 11:39:38 437.425
AISAT 21 Apr 11:34:30 11:37:43 20° 95° (E) 11:41:05 437.250
Cosmos 2491 21 Apr 11:39:20 11:48:12 85° 84° (E) 11:57:04 435.465 / 435.565
Oscar 11 21 Apr 11:41:30 11:45:33 38° 285° (WNW) 11:49:32 145.826/435.025
CUBEBUG 2 21 Apr 11:43:32 11:48:08 47° 285° (WNW) 11:52:41 437.445
QB50P1 21 Apr 11:43:54 11:47:57 50° 76° (ENE) 11:52:03 145.935-145.965
BUGSAT 1 21 Apr 11:46:48 11:50:27 34° 74° (ENE) 11:54:08 437.445
ESTCUBE 1 21 Apr 11:56:26 11:59:24 18° 94° (E) 12:02:32 437.505/2401.250
HUMSAT D 21 Apr 12:05:11 12:09:33 89° 268° (W) 12:13:52 437.325/437.525
DX 1 21 Apr 12:06:21 12:10:40 67° 284° (WNW) 12:14:59 434.975-435.025
QB50P2 21 Apr 12:08:01 12:12:12 74° 259° (WSW) 12:16:25 145.880/145.840
ANTELSAT 21 Apr 12:13:09 12:17:04 30° 264° (W) 12:21:02 437.575/2403.000
HO-68 21 Apr 12:20:27 12:23:42 13° 298° (WNW) 12:26:24 435.675
UWE-3 21 Apr 12:20:55 12:24:36 23° 288° (WNW) 12:28:10 435.000/436.395/437.385
50 SAT 21 Apr 12:26:33 12:30:37 79° 283° (WNW) 12:34:37 437.505
NANOSAT C BR1 21 Apr 12:29:59 12:33:55 39° 261° (W) 12:37:51 145.865
POPSAT HIP 1 21 Apr 12:30:55 12:34:50 38° 262° (W) 12:38:45 437.405
YUBILEINY 21 Apr 12:39:03 12:47:52 73° 277° (W) 12:56:42 435.215
FUNcube-1 21 Apr 12:44:25 12:47:15 16° 289° (WNW) 12:49:53 145.935
ISS 21 Apr 12:44:26 12:46:02 13° 127° (SE) 12:47:45 145.825
AIST 1 21 Apr 12:48:00 12:51:20 23° 77° (ENE) 12:54:46
VELOX 1 21 Apr 12:54:16 12:58:28 42° 286° (WNW) 13:02:38 145.980
UKube-1 21 Apr 12:57:38 13:00:36 18° 289° (WNW) 13:03:25 .
POLYITAN 1 21 Apr 12:59:41 13:02:30 17° 266° (W) 13:05:11 437.675
TISAT 1 21 Apr 13:06:26 13:09:24 19° 95° (E) 13:12:31 437.305
SO-50 21 Apr 13:06:30 13:10:59 61° 115° (ESE) 13:15:39 436.795
DUCHIFAT 1 21 Apr 13:07:20 13:09:42 14° 267° (W) 13:11:53 145.980
AISAT 21 Apr 13:10:32 13:14:19 27° 287° (WNW) 13:18:01 437.250
CUBEBUG 1 21 Apr 13:13:51 13:18:07 55° 284° (WNW) 13:22:22 437.445
SPROUT 21 Apr 13:17:36 13:21:32 35° 98° (E) 13:25:30 437.525
BUGSAT 1 21 Apr 13:24:25 13:26:06 12° 267° (W) 13:27:34 437.445
ESTCUBE 1 21 Apr 13:32:24 13:36:20 30° 287° (WNW) 13:40:11 437.505/2401.250
Cosmos 2491 21 Apr 13:39:39 13:44:12 14° 277° (W) 13:48:00 435.465 / 435.565
Oscar 19 21 Apr 13:41:31 13:45:53 30° 72° (ENE) 13:50:22 437.125/150
RS-15 21 Apr 13:45:02 13:48:23 12° 103° (ESE) 13:52:56 29.354- 29.394
ITAMSAT 1 21 Apr 14:07:15 14:10:01 15° 68° (ENE) 14:13:02 435.822/435.867
ITUPSAT 1 21 Apr 14:07:25 14:09:29 13° 92° (E) 14:11:50 437.325
Gurwin Techsat 1B 21 Apr 14:09:24 14:11:42 13° 68° (ENE) 14:14:20 435.225
ISS 21 Apr 14:19:10 14:22:11 34° 318° (NW) 14:25:12 145.825
AIST 1 21 Apr 14:25:47 14:28:53 19° 270° (W) 14:31:51
Cosmos 2504 21 Apr 14:27:05 14:35:29 55° 91° (E) 14:44:06 435.465 / 435.565
BEESAT 2 21 Apr 14:27:35 14:31:41 87° 61° (ENE) 14:35:43 435.950
BEESAT 3 21 Apr 14:32:27 14:36:30 64° 245° (WSW) 14:40:27 437.485
BEESAT 21 Apr 14:39:34 14:43:48 33° 98° (E) 14:48:06 436.000
SWISSCUBE 21 Apr 14:41:08 14:45:31 38° 98° (E) 14:49:56 437.505
TISAT 1 21 Apr 14:41:38 14:45:11 25° 287° (WNW) 14:48:38 437.305
SO-50 21 Apr 14:49:51 14:52:03 13° 312° (NW) 14:54:02 436.795
SPROUT 21 Apr 14:54:50 14:57:22 15° 289° (WNW) 14:59:42 437.525
AIST 2 21 Apr 14:58:36 15:02:44 54° 60° (ENE) 15:06:48 435.215
Oscar 19 21 Apr 15:21:04 15:25:14 24° 265° (W) 15:29:18 437.125/150
HORYU 2 21 Apr 15:29:33 15:31:52 15° 70° (ENE) 15:34:25 437.375
ITUPSAT 1 21 Apr 15:43:07 15:47:40 45° 286° (WNW) 15:52:11 437.325
ITAMSAT 1 21 Apr 15:44:07 15:49:09 50° 260° (W) 15:54:11 435.822/435.867
Gurwin Techsat 1B 21 Apr 15:46:02 15:51:15 59° 259° (W) 15:56:30 435.225
RS-15 21 Apr 15:48:40 15:59:33 81° 114° (ESE) 16:10:33 29.354- 29.394
JAS-2 21 Apr 15:50:56 15:57:04 27° 68° (ENE) 16:03:27 435.910
KKS-1 21 Apr 15:51:38 15:55:42 34° 98° (E) 15:59:48 437.445
AO-7 21 Apr 16:16:12 16:23:59 49° 68° (ENE) 16:31:52 29.400- 29.500
BEESAT 21 Apr 16:18:03 16:21:27 19° 290° (WNW) 16:24:41 436.000
SWISSCUBE 21 Apr 16:20:03 16:23:07 17° 290° (WNW) 16:26:00 437.505
Cosmos 2504 21 Apr 16:22:02 16:29:22 27° 287° (WNW) 16:36:27 435.465 / 435.565
STARS 21 Apr 16:57:24 17:01:47 60° 284° (WNW) 17:06:10 437.465
GONETS M04 21 Apr 17:02:17 17:09:39 34° 88° (E) 17:17:21
HORYU 2 21 Apr 17:04:02 17:08:14 39° 262° (W) 17:12:25 437.375
MOZHAYETS 4 21 Apr 17:21:53 17:25:08 20° 94° (E) 17:28:32
KKS-1 21 Apr 17:29:13 17:32:06 16° 290° (WNW) 17:34:48 437.445
JAS-2 21 Apr 17:34:09 17:41:41 55° 261° (W) 17:49:19 435.910
CUTE-I 21 Apr 18:01:44 18:04:34 15° 68° (ENE) 18:07:40 437.470
RS-15 21 Apr 18:04:41 18:13:20 25° 318° (NW) 18:21:43 29.354- 29.394
Cubesat XI-IV 21 Apr 18:09:13 18:12:42 19° 69° (ENE) 18:16:25 437.490
AO-7 21 Apr 18:09:54 18:17:00 30° 263° (W) 18:23:52 29.400- 29.500
PHONESAT 2.4 21 Apr 18:16:52 18:18:55 15° 141° (SE) 18:21:05 2401.200-2431.200
VERMONT LUNAR 21 Apr 18:32:54 18:36:15 73° 150° (SSE) 18:39:39 437.305
CUBESAT XI-V 21 Apr 18:47:25 18:48:19 11° 91° (E) 18:49:34 437.345
M-CUBED/EXP-1 PRIME 21 Apr 18:48:40 18:50:33 13° 95° (E) 18:52:35 437.505
GONETS M04 21 Apr 18:58:10 19:06:21 42° 283° (WNW) 19:14:29
MOZHAYETS 4 21 Apr 18:58:26 19:02:24 28° 287° (WNW) 19:06:16
Cosmos 2499 21 Apr 19:02:44 19:10:23 36° 89° (E) 19:18:14 435.465 / 435.565
CUSAT 1 21 Apr 19:18:45 19:21:18 24° 287° (WNW) 19:24:18 437.405
DANDE 21 Apr 19:28:34 19:30:59 25° 286° (WNW) 19:33:46 436.750
AUBIESAT-1 21 Apr 19:33:40 19:37:39 45° 103° (ESE) 19:41:19 437.475
PCSat 21 Apr 19:36:39 19:41:56 52° 62° (ENE) 19:47:12 145.827
PRISM 21 Apr 19:38:57 19:42:21 26° 97° (E) 19:45:49 437.425
CUTE-I 21 Apr 19:39:04 19:44:16 52° 260° (W) 19:49:27 437.470
Cubesat XI-IV 21 Apr 19:47:29 19:52:32 42° 261° (W) 19:57:34 437.490
PHONESAT 2.4 21 Apr 19:53:21 19:56:55 74° 330° (NNW) 20:00:31 2401.200-2431.200
VERMONT LUNAR 21 Apr 20:11:14 20:14:01 23° 343° (NNW) 20:16:47 437.305
STRAND 1 21 Apr 20:16:10 20:21:09 55° 100° (E) 20:26:09 437.568
CUBESAT XI-V 21 Apr 20:21:39 20:26:07 51° 284° (WNW) 20:30:34 437.345
M-CUBED/EXP-1 PRIME 21 Apr 20:21:49 20:25:41 34° 292° (WNW) 20:29:12 437.505
ISS 21 Apr 20:51:36 20:53:33 15° 35° (NE) 20:55:34 145.825
DOVE 4 21 Apr 20:51:57 20:54:21 16° 71° (ENE) 20:56:59 437.250
HO-68 21 Apr 20:51:57 20:58:24 39° 69° (ENE) 21:04:58 435.675
Cosmos 2499 21 Apr 20:55:08 21:03:26 42° 283° (WNW) 21:11:34 435.465 / 435.565
AUBIESAT-1 21 Apr 21:10:49 21:11:59 11° 297° (WNW) 21:12:54 437.475
COMPASS 1 21 Apr 21:11:16 21:14:23 21° 73° (ENE) 21:17:39 437.405
PRISM 21 Apr 21:14:52 21:17:40 17° 289° (WNW) 21:20:18 437.425
BRITE-PL 21 Apr 21:19:33 21:23:42 81° 258° (WSW) 21:27:52 437.365/2234.400
PCSat 21 Apr 21:21:49 21:24:58 15° 254° (WSW) 21:27:49 145.827
SEEDS 21 Apr 21:28:43 21:32:45 44° 75° (ENE) 21:36:51 437.485
CANX-2 21 Apr 21:29:21 21:33:35 64° 77° (ENE) 21:37:51 2200.000
GOMX 1 21 Apr 21:29:48 21:33:55 79° 79° (ENE) 21:38:08 467.674
PHONESAT 2.4 21 Apr 21:32:48 21:35:34 20° 347° (NNW) 21:38:20 2401.200-2431.200
UWE-3 21 Apr 21:39:00 21:39:35 10° 69° (ENE) 21:40:27 435.000/436.395/437.385
CUTE 1.7 + AOD 2 21 Apr 21:39:09 21:43:25 76° 78° (ENE) 21:47:43 437.475
SO-50 21 Apr 21:44:58 21:47:34 15° 49° (NE) 21:50:22 436.795
VERMONT LUNAR 21 Apr 21:50:22 21:52:17 14° 360° (N) 21:54:12 437.305
AAUSAT CUBESAT 2 21 Apr 21:56:30 22:00:40 68° 77° (ENE) 22:04:53 437.432
STRAND 1 21 Apr 21:57:26 21:59:58 13° 292° (WNW) 22:02:12 437.568
FUNcube-1 21 Apr 21:58:49 22:01:02 15° 70° (ENE) 22:03:31 145.935
DELFI C3 21 Apr 22:01:44 22:04:54 23° 73° (ENE) 22:08:10 145.870
CINEMA 3 21 Apr 22:07:11 22:11:19 64° 77° (ENE) 22:15:39 145.822/145.860
UKube-1 21 Apr 22:12:09 22:13:55 13° 69° (ENE) 22:15:55 .
ZACube-1 21 Apr 22:20:53 22:24:28 28° 73° (ENE) 22:28:12 437.345
ISS 21 Apr 22:27:01 22:30:03 37° 230° (SW) 22:33:03 145.825
DOVE 4 21 Apr 22:28:16 22:31:55 29° 264° (W) 22:35:37 437.250
Oscar 11 21 Apr 22:29:59 22:34:18 77° 79° (ENE) 22:38:40 145.826/435.025
CUBEBUG 2 21 Apr 22:35:57 22:40:09 71° 77° (ENE) 22:44:32 437.445
HO-68 21 Apr 22:39:49 22:46:09 32° 263° (W) 22:52:21 435.675
Cosmos 2491 21 Apr 22:40:21 22:45:26 18° 84° (E) 22:51:07 435.465 / 435.565
COMPASS 1 21 Apr 22:46:35 22:49:59 23° 265° (W) 22:53:19 437.405
RS-15 21 Apr 22:47:19 22:52:12 14° 30° (NNE) 22:57:55 29.354- 29.394
HUMSAT D 21 Apr 22:51:45 22:55:20 29° 73° (ENE) 22:59:02 437.325/437.525
DX 1 21 Apr 22:56:14 23:00:23 48° 75° (ENE) 23:04:34 434.975-435.025
YUBILEINY 21 Apr 22:56:53 23:05:02 43° 77° (ENE) 23:13:14 435.215
50 SAT 21 Apr 23:06:51 23:10:06 25° 73° (ENE) 23:13:28 437.505
SEEDS 21 Apr 23:07:42 23:08:51 11° 269° (W) 23:09:41 437.485
UWE-3 21 Apr 23:11:34 23:15:41 50° 261° (W) 23:19:56 435.000/436.395/437.385
PHONESAT 2.4 21 Apr 23:12:22 23:14:40 16° 4° (N) 23:16:57 2401.200-2431.200
O/OREOS (USA 219) 21 Apr 23:22:50 23:27:06 40° 105° (ESE) 23:31:25 437.305
SO-50 21 Apr 23:23:42 23:28:34 59° 245° (WSW) 23:33:20 436.795
TIGRISAT 21 Apr 23:26:47 23:30:37 25° 95° (E) 23:34:30 435.000
VERMONT LUNAR 21 Apr 23:27:48 23:30:33 23° 17° (NNE) 23:33:19 437.305
UNISAT 6 21 Apr 23:28:56 23:32:55 28° 96° (E) 23:36:56 437.425
FUNcube-1 21 Apr 23:33:12 23:37:06 35° 263° (W) 23:41:04 145.935
QB50P1 21 Apr 23:36:26 23:38:28 13° 93° (E) 23:40:44 145.935-145.965
DELFI C3 21 Apr 23:36:57 23:40:00 20° 265° (W) 23:42:56 145.870
UKube-1 21 Apr 23:45:40 23:49:45 41° 261° (W) 23:53:49 .
VELOX 1 21 Apr 23:45:49 23:50:13 81° 77° (ENE) 23:54:38 145.980
ZACube-1 21 Apr 23:57:55 00:00:53 18° 267° (W) 00:03:44 437.345
QB50P2 21 Apr 23:59:32 00:03:11 27° 97° (E) 00:06:54 145.880/145.840
AISAT 22 Apr 00:02:01 00:06:21 60° 259° (W) 00:10:42 437.250
CUBEBUG 1 22 Apr 00:04:09 00:08:23 57° 76° (ENE) 00:12:39 437.445
SPROUT 22 Apr 00:07:59 00:09:59 14° 70° (ENE) 00:12:13 437.525
ANTELSAT 22 Apr 00:10:13 00:14:58 87° 105° (ESE) 00:19:37 437.575/2403.000
NANOSAT C BR1 22 Apr 00:20:23 00:24:32 49° 100° (E) 00:28:42 145.865
POPSAT HIP 1 22 Apr 00:21:32 00:25:43 51° 100° (E) 00:29:55 437.405
ESTCUBE 1 22 Apr 00:25:38 00:30:07 67° 259° (W) 00:34:37 437.505/2401.250
HUMSAT D 22 Apr 00:28:29 00:31:10 16° 267° (W) 00:33:43 437.325/437.525
Cosmos 2504 22 Apr 00:32:10 00:33:58 11° 64° (ENE) 00:36:29 435.465 / 435.565
Cosmos 2491 22 Apr 00:32:55 00:41:36 71° 278° (W) 00:50:19 435.465 / 435.565
DX 1 22 Apr 00:36:34 00:36:58 10° 269° (W) 00:37:01 434.975-435.025
50 SAT 22 Apr 00:42:22 00:44:58 16° 266° (W) 00:47:26 437.505
POLYITAN 1 22 Apr 00:49:11 00:53:28 67° 284° (WNW) 00:57:44 437.675
PHONESAT 2.4 22 Apr 00:50:22 00:53:36 32° 20° (NNE) 00:56:50 2401.200-2431.200
YUBILEINY 22 Apr 00:54:08 01:01:39 32° 272° (W) 01:08:53 435.215
DUCHIFAT 1 22 Apr 00:55:41 00:59:53 57° 284° (WNW) 01:04:04 145.980
RS-15 22 Apr 00:56:55 01:08:13 55° 56° (ENE) 01:20:03 29.354- 29.394
TIGRISAT 22 Apr 01:03:27 01:07:17 24° 288° (WNW) 01:10:56 435.000
O/OREOS (USA 219) 22 Apr 01:04:05 01:06:45 15° 299° (WNW) 01:09:13 437.305
VERMONT LUNAR 22 Apr 01:04:57 01:08:17 71° 212° (SSW) 01:11:36 437.305
UNISAT 6 22 Apr 01:05:54 01:09:34 22° 289° (WNW) 01:13:04 437.425
BUGSAT 1 22 Apr 01:09:30 01:13:33 55° 284° (WNW) 01:17:38 437.445
QB50P1 22 Apr 01:10:33 01:14:30 36° 285° (WNW) 01:18:24 145.935-145.965
AIST 1 22 Apr 01:12:03 01:14:57 18° 90° (E) 01:17:59
TISAT 1 22 Apr 01:27:22 01:31:32 74° 259° (WSW) 01:35:43 437.305
QB50P2 22 Apr 01:35:53 01:38:55 18° 288° (WNW) 01:41:47 145.880/145.840
BEESAT 22 Apr 01:41:11 01:44:38 21° 71° (ENE) 01:48:13 436.000
SPROUT 22 Apr 01:41:50 01:45:48 37° 262° (W) 01:49:45 437.525
SWISSCUBE 22 Apr 01:42:41 01:46:23 23° 71° (ENE) 01:50:13 437.505
NANOSAT C BR1 22 Apr 01:59:06 02:00:00 10° 291° (WNW) 02:00:38 145.865
Oscar 19 22 Apr 01:59:40 02:02:52 17° 93° (E) 02:06:18 437.125/150
POPSAT HIP 1 22 Apr 02:00:45 02:01:12 10° 291° (WNW) 02:01:23 437.405
Cosmos 2504 22 Apr 02:20:53 02:28:58 87° 84° (E) 02:36:26 435.465 / 435.565
PHONESAT 2.4 22 Apr 02:28:31 02:31:55 42° 214° (SW) 02:35:16 2401.200-2431.200
ITUPSAT 1 22 Apr 02:43:48 02:48:36 78° 258° (WSW) 02:53:25 437.325
KKS-1 22 Apr 02:45:34 02:48:10 16° 70° (ENE) 02:50:57 437.445
AIST 1 22 Apr 02:48:50 02:52:27 25° 282° (WNW) 02:55:58
JUGNU 22 Apr 02:56:53 03:01:00 20° 167° (SSE) 03:05:10 437.505
RS-15 22 Apr 03:09:56 03:20:26 37° 252° (WSW) 03:30:53 29.354- 29.394
BEESAT 22 Apr 03:18:04 03:22:19 31° 263° (W) 03:26:30 436.000
SWISSCUBE 22 Apr 03:20:04 03:24:09 27° 264° (W) 03:28:08 437.505
GONETS M04 22 Apr 03:24:01 03:25:01 10° 63° (ENE) 03:26:57
Oscar 19 22 Apr 03:37:32 03:42:26 42° 287° (WNW) 03:47:17 437.125/150
STARS 22 Apr 03:48:30 03:52:45 55° 76° (ENE) 03:57:04 437.465
ITAMSAT 1 22 Apr 04:02:37 04:07:49 87° 279° (W) 04:13:00 435.822/435.867
Gurwin Techsat 1B 22 Apr 04:08:02 04:13:22 90° 358° (N) 04:18:41 435.225
BEESAT 2 22 Apr 04:15:54 04:19:56 68° 115° (ESE) 04:24:03 435.950
CUSAT 1 22 Apr 04:17:41 04:22:03 17° 70° (ENE) 04:27:11 437.405
Cosmos 2504 22 Apr 04:18:35 04:21:22 12° 278° (W) 04:23:23 435.465 / 435.565
BEESAT 3 22 Apr 04:19:52 04:23:54 85° 294° (WNW) 04:28:02 437.485
KKS-1 22 Apr 04:20:32 04:24:34 34° 262° (W) 04:28:35 437.445
MOZHAYETS 4 22 Apr 04:21:19 04:21:35 10° 69° (ENE) 04:22:11
AO-7 22 Apr 04:25:26 04:31:16 22° 94° (E) 04:37:32 29.400- 29.500
DANDE 22 Apr 04:29:50 04:34:01 16° 71° (ENE) 04:39:04 436.750
JUGNU 22 Apr 04:44:32 04:49:32 29° 176° (S) 04:54:31 437.505
SRMSAT 22 Apr 04:46:41 04:50:55 21° 167° (SSE) 04:55:13 437.500
AIST 2 22 Apr 04:50:58 04:55:01 47° 114° (ESE) 04:59:10 435.215
JAS-2 22 Apr 04:52:24 04:57:42 29° 94° (E) 05:02:36 435.910
HORYU 2 22 Apr 05:00:45 05:05:14 62° 101° (E) 05:09:39 437.375
GONETS M04 22 Apr 05:14:46 05:23:38 76° 83° (E) 05:32:27
M-CUBED/EXP-1 PRIME 22 Apr 05:32:58 05:33:31 10° 63° (ENE) 05:34:25 437.505
MOZHAYETS 4 22 Apr 05:53:47 05:58:22 60° 260° (W) 06:02:58
CUSAT 1 22 Apr 05:57:47 06:05:27 85° 264° (W) 06:13:50 437.405
DANDE 22 Apr 06:10:19 06:17:51 85° 263° (W) 06:26:27 436.750
AUBIESAT-1 22 Apr 06:15:31 06:19:28 28° 68° (ENE) 06:23:35 437.475
AO-7 22 Apr 06:16:24 06:24:36 64° 290° (WNW) 06:32:47 29.400- 29.500
AIST 2 22 Apr 06:31:49 06:33:56 13° 310° (NW) 06:35:51 435.215
JUGNU 22 Apr 06:33:10 06:38:05 28° 186° (S) 06:42:59 437.505
Cubesat XI-IV 22 Apr 06:33:54 06:35:00 11° 90° (E) 06:36:33 437.490
SRMSAT 22 Apr 06:34:35 06:39:36 29° 177° (S) 06:44:38 437.500
JAS-2 22 Apr 06:37:19 06:42:47 30° 291° (WNW) 06:47:38 435.910
Cosmos 2499 22 Apr 06:53:58 07:01:31 53° 80° (E) 07:08:34 435.465 / 435.565
M-CUBED/EXP-1 PRIME 22 Apr 07:03:10 07:07:48 73° 255° (WSW) 07:12:39 437.505
GONETS M04 22 Apr 07:14:18 07:19:42 17° 276° (W) 07:24:28
CUBESAT XI-V 22 Apr 07:18:55 07:23:34 78° 77° (ENE) 07:28:12 437.345
STRAND 1 22 Apr 07:26:26 07:31:14 43° 74° (ENE) 07:36:04 437.568
CUSAT 1 22 Apr 07:44:01 07:47:45 13° 272° (W) 07:50:52 437.405
AUBIESAT-1 22 Apr 07:50:23 07:54:12 24° 261° (W) 07:58:00 437.475
DANDE 22 Apr 07:57:01 08:00:47 13° 271° (W) 08:04:00 436.750
PRISM 22 Apr 07:58:01 08:02:06 51° 260° (W) 08:06:11 437.425
CUTE-I 22 Apr 08:01:54 08:07:13 81° 285° (WNW) 08:12:33 437.470
Cubesat XI-IV 22 Apr 08:10:21 08:15:38 65° 285° (WNW) 08:20:53 437.490
JUGNU 22 Apr 08:22:45 08:26:35 18° 195° (SSW) 08:30:20 437.505
SRMSAT 22 Apr 08:23:24 08:28:19 27° 187° (S) 08:33:14 437.500
PCSat 22 Apr 08:31:47 08:34:37 15° 106° (ESE) 08:37:46 145.827
Cosmos 2499 22 Apr 08:48:35 08:54:06 21° 275° (W) 08:59:01 435.465 / 435.565
